GFSSW_250_spd_375.txt.gz
Wind_Speed
32 33 32 34 34 36 39 41 42 46 46 46 46 47 49 48 49 49 53 55 55 55 55 57 59 60 59 58 62 63 58 56 57 55 55 65 67 75 77 79 81 80 86 88 83
31 31 33 35 36 40 42 43 45 47 48 47 46 47 50 51 52 55 56 57 57 58 59 62 64 63 62 65 67 69 65 63 59 62 61 61 59 72 78 84 85 84 85 87 88
33 34 35 38 40 43 46 49 50 50 50 49 50 52 54 55 57 59 58 59 60 59 63 66 66 66 70 70 70 70 70 69 68 69 67 65 63 65 72 81 84 89 89 84 86
37 39 41 43 44 48 48 51 51 50 50 53 54 55 58 62 61 59 59 61 62 64 68 67 68 70 71 70 70 71 72 74 75 75 75 72 70 68 71 75 84 92 92 94 92
41 43 45 46 48 50 52 53 54 54 55 56 57 60 63 64 63 65 63 63 66 69 68 67 71 72 71 71 73 74 77 79 79 79 78 74 73 72 72 77 85 86 92 97 100
44 45 45 47 50 51 54 55 56 58 58 59 64 68 67 65 66 65 64 66 66 65 64 69 70 71 70 73 75 75 77 79 79 79 75 73 72 74 73 80 81 93 89 100 102
52 53 50 50 52 55 57 58 59 60 64 68 69 70 69 68 66 70 69 64 65 66 67 68 69 72 72 75 79 81 80 82 84 85 79 73 65 78 79 83 83 88 92 94 106
57 57 55 54 54 58 59 61 61 65 72 72 68 69 68 68 72 71 66 60 61 62 65 69 73 77 79 85 86 85 89 93 91 88 84 74 69 83 84 84 84 87 86 90 90
60 58 57 58 60 61 60 65 68 73 72 68 71 71 70 75 74 72 68 67 67 69 71 74 75 80 85 91 96 94 91 86 79 77 73 73 67 76 77 82 83 91 95 99 100
60 59 60 61 61 61 64 71 73 74 70 69 74 70 73 74 73 69 68 66 71 74 75 82 87 92 95 93 85 81 76 76 70 72 67 66 54 66 67 67 75 85 91 100 105
58 59 59 61 62 65 71 72 73 73 72 71 75 71 70 75 71 70 72 77 73 80 90 92 92 93 84 77 74 69 68 62 63 60 58 55 54 59 60 67 75 79 86 93 98
59 58 62 63 67 71 75 72 77 74 74 77 80 77 78 80 80 74 75 76 78 81 91 94 88 79 73 68 65 60 56 54 52 52 52 51 51 50 52 56 60 71 80 89 95
58 60 64 68 71 74 76 78 78 76 77 80 79 77 81 84 76 67 74 80 86 92 98 91 81 73 65 60 56 53 48 46 46 48 45 41 43 42 44 47 50 56 66 76 89
59 63 69 71 74 77 79 79 78 79 81 82 77 80 82 87 73 77 82 85 87 94 90 83 76 67 61 54 48 48 45 43 43 41 38 32 36 36 35 39 41 45 53 61 73
63 71 73 72 75 78 82 81 78 80 84 82 79 81 88 85 80 80 84 88 93 95 88 78 70 63 54 46 45 40 41 39 35 30 31 28 29 27 29 33 35 40 45 51 61
64 72 75 72 79 81 85 79 78 82 81 82 81 86 91 88 82 77 77 88 96 98 89 74 66 57 50 42 40 39 37 30 28 25 24 24 22 22 25 26 30 36 40 45 55
68 71 75 77 79 84 78 77 77 81 83 82 82 89 92 90 85 83 80 90 94 96 84 73 64 53 46 39 39 36 29 25 24 21 19 17 17 18 20 22 27 31 35 42 49
72 76 78 77 82 84 77 78 80 82 82 84 85 90 94 92 85 85 85 97 99 94 77 67 59 52 44 39 36 31 24 21 21 18 15 12 11 15 20 30 36 40 42 48 56
78 80 81 82 83 81 76 80 83 82 81 84 88 94 94 89 87 87 87 96 106 91 76 64 57 47 41 39 35 27 23 19 18 14 12 8 10 16 23 29 42 48 55 63 72
80 86 86 80 83 81 80 81 82 81 84 87 92 93 93 87 91 86 88 96 104 89 74 61 53 47 39 40 33 24 22 18 16 12 9 7 11 19 26 35 44 54 63 72 79
90 92 85 80 85 82 81 81 81 80 85 90 93 94 91 93 86 85 90 97 105 86 71 58 49 44 39 41 33 25 21 17 14 9 7 8 14 20 26 34 47 58 69 79 86
90 88 82 86 84 82 82 80 79 84 88 90 92 92 91 92 84 84 91 98 104 82 70 55 47 41 39 39 31 24 20 16 12 9 6 9 17 22 27 42 52 61 74 87 91
86 81 86 87 87 80 81 80 82 85 88 93 91 90 93 90 81 84 91 98 100 82 68 51 45 40 38 39 31 23 19 16 12 8 5 11 18 27 36 42 55 65 75 88 99
83 84 88 88 85 81 83 81 84 86 93 95 94 93 93 87 83 87 91 97 97 82 66 51 44 39 36 37 31 22 18 15 10 8 5 11 18 24 33 43 52 62 72 91 99
85 87 89 88 83 85 83 84 85 89 95 93 90 94 93 83 82 90 93 98 93 79 65 49 42 38 36 37 31 22 18 13 10 6 7 10 16 24 31 38 45 56 64 77 96
87 90 86 87 82 86 83 87 89 93 94 92 92 96 92 81 82 90 94 100 90 76 63 48 41 35 35 36 30 21 18 12 10 6 7 10 13 20 28 36 43 49 55 64 87
87 89 86 80 83 84 86 88 92 92 91 93 93 95 88 82 84 91 94 97 84 72 60 47 39 33 32 35 30 22 17 11 9 7 7 9 13 17 23 29 38 45 49 59 70

GFSSW_250_spd_378.txt.gz
Wind_Speed
31 31 32 34 36 37 40 41 42 43 45 47 48 47 47 48 51 54 56 56 58 57 56 54 55 58 59 58 61 64 62 60 61 59 56 57 56 58 62 69 71 74 79 82 83
32 32 34 37 38 40 41 43 44 47 49 51 52 50 51 53 58 61 61 62 61 61 61 59 58 60 61 65 67 69 67 68 67 66 65 64 58 59 63 66 72 75 75 77 84
34 35 38 41 42 43 44 46 48 52 52 54 53 54 57 61 62 62 61 61 61 62 61 62 62 63 65 68 68 69 70 73 74 70 68 68 65 61 63 67 70 74 82 79 80
36 41 44 47 47 48 49 50 53 55 55 55 56 60 65 67 60 61 63 60 59 61 64 64 64 65 67 68 68 70 73 75 74 73 71 71 69 68 68 69 75 75 80 87 84
37 43 49 52 50 49 52 53 54 56 55 63 65 67 69 65 62 61 61 62 63 62 60 56 54 56 61 62 65 66 70 74 73 74 74 74 73 74 72 73 78 78 79 86 91
40 45 52 53 52 52 53 56 56 59 62 68 70 70 69 64 65 60 64 65 64 61 56 56 58 59 62 66 67 70 71 74 76 76 76 73 72 73 79 79 78 81 81 84 91
42 49 53 54 56 55 55 57 64 68 68 73 72 73 69 66 68 66 63 66 68 66 63 63 64 66 69 73 77 82 81 84 88 89 83 75 70 77 78 77 78 81 83 85 86
45 51 55 58 57 55 57 63 67 73 71 76 75 77 69 71 71 67 65 70 69 67 65 66 70 74 78 79 83 84 88 94 100 96 86 72 67 80 80 83 83 83 86 89 88
49 55 58 62 58 55 59 69 69 75 78 77 82 77 71 74 70 68 70 77 76 76 73 75 77 83 89 91 94 93 81 77 80 78 72 73 69 82 82 84 86 90 91 94 94
51 55 60 59 60 63 65 73 75 77 80 81 81 74 75 75 71 72 75 80 82 80 77 78 82 87 94 95 82 74 68 70 65 67 64 64 61 72 79 78 80 86 95 96 98
54 60 60 61 64 67 70 74 80 76 79 86 80 75 77 75 73 74 80 86 85 85 84 86 88 95 100 79 68 60 57 54 59 58 56 54 56 59 62 68 70 77 86 94 96
58 61 63 61 65 67 75 80 81 80 81 85 77 78 78 75 79 81 88 90 87 84 83 89 93 95 81 68 60 55 50 48 48 46 49 48 50 50 49 56 61 65 72 81 89
57 63 62 66 69 72 82 78 80 85 83 82 78 78 77 76 80 82 88 88 85 88 88 90 96 92 73 61 56 52 42 41 40 42 37 38 41 44 46 50 57 60 65 69 76
62 64 66 68 73 76 82 79 88 84 80 80 79 76 75 77 81 87 88 88 89 91 87 89 95 80 67 58 51 46 43 40 38 36 37 31 34 40 39 42 47 50 55 63 69
69 65 67 72 76 80 81 84 92 83 82 81 79 78 78 81 86 92 88 91 93 93 89 92 90 75 64 53 47 41 39 39 36 32 31 28 31 32 33 35 36 38 40 45 54
69 68 76 75 80 84 84 87 92 82 81 81 80 80 78 80 88 93 92 94 94 93 90 89 84 74 62 49 45 38 37 35 30 27 24 25 26 24 25 26 29 29 32 38 42
72 74 78 79 83 86 86 89 89 82 83 80 77 81 82 83 91 94 90 92 93 86 88 86 80 72 57 52 38 37 34 29 25 21 21 20 22 20 19 21 23 26 30 35 36
77 82 81 80 84 88 87 88 85 82 82 80 81 82 85 85 92 93 94 97 98 91 87 83 77 67 55 46 37 36 28 24 20 20 19 17 17 16 16 18 21 25 27 27 28
83 84 85 87 85 86 88 89 82 82 82 79 82 81 85 85 93 95 96 96 100 89 88 83 75 62 50 43 38 32 24 20 19 16 16 14 14 16 15 19 22 27 30 31 35
79 81 83 88 85 90 87 87 84 83 79 79 81 82 87 90 92 95 99 100 97 87 86 83 74 62 52 42 37 31 22 19 17 15 13 11 11 12 13 20 24 29 34 37 42
82 87 89 92 87 90 83 84 82 82 81 78 81 82 87 91 94 97 100 100 89 85 84 80 71 60 50 41 37 29 20 18 15 14 11 10 8 11 16 19 26 34 39 45 49
94 94 94 92 86 85 83 84 81 79 80 79 80 83 87 91 95 97 99 97 85 84 85 80 70 57 47 38 35 30 20 17 14 12 9 9 10 14 17 20 26 33 44 49 53
91 88 89 84 81 84 84 85 83 78 79 80 82 83 89 91 93 97 99 92 85 84 86 77 66 54 46 40 35 30 21 17 13 10 8 9 11 17 22 27 32 37 51 55 61
91 84 80 78 82 83 84 84 84 82 80 81 83 83 90 93 92 95 98 93 86 82 83 79 67 52 44 35 32 29 20 16 13 8 9 9 14 18 25 29 34 42 57 67 68
80 81 82 80 84 83 82 80 83 82 78 81 84 86 88 93 93 95 96 92 86 81 82 77 68 52 43 37 30 29 21 16 12 9 7 10 16 17 25 30 41 48 61 71 78
88 86 83 83 83 82 78 85 83 83 79 85 84 88 90 90 91 96 94 88 82 81 82 76 65 51 42 37 30 27 21 15 12 9 7 9 15 19 22 29 38 49 56 72 80
88 88 86 83 82 78 80 83 85 84 82 87 87 88 88 87 90 92 89 89 78 78 80 75 65 51 40 37 30 27 21 15 11 10 8 9 15 21 22 27 35 46 57 70 79

GFSSW_250_spd_381.txt.gz
Wind_Speed
26 27 30 30 34 35 36 37 36 37 39 44 47 51 56 57 58 56 58 57 54 52 54 56 57 58 59 59 57 57 57 61 61 61 63 61 59 54 59 62 65 68 71 70 75
28 30 31 36 40 41 40 38 40 41 46 47 55 60 61 64 60 62 60 56 55 57 55 55 55 56 58 61 63 63 63 65 64 65 66 69 66 63 61 64 68 72 70 69 72
31 32 34 38 41 43 42 43 43 43 50 56 61 65 71 66 63 63 58 55 57 57 55 54 53 56 57 57 59 62 64 67 68 69 71 72 71 68 68 69 72 73 76 75 74
33 34 36 41 44 45 46 45 45 51 57 59 65 71 71 68 65 57 55 59 57 55 56 57 56 55 52 52 52 56 61 63 66 69 69 71 75 74 73 74 78 76 77 79 78
34 38 40 43 47 49 49 48 52 55 63 67 68 73 72 71 64 59 61 61 55 55 55 56 58 57 55 51 53 54 58 64 68 72 74 72 72 74 73 78 77 77 79 81 85
36 39 43 46 50 49 50 52 55 56 66 71 69 75 70 68 63 63 66 64 60 58 60 64 65 65 64 64 65 66 69 72 73 74 77 76 73 74 77 78 75 77 82 84 87
38 42 48 51 53 53 55 55 58 61 70 71 74 77 70 70 66 65 65 63 63 64 69 72 70 65 64 65 66 71 75 75 76 76 73 72 74 80 82 85 76 75 80 86 89
44 47 50 49 53 55 56 60 63 65 74 73 77 78 69 72 70 67 64 62 63 69 76 73 71 71 73 73 75 75 74 78 85 80 81 79 78 89 91 87 84 82 82 83 88
44 44 46 50 54 56 57 65 69 69 74 75 79 78 70 73 69 66 61 63 67 75 80 78 79 79 79 75 76 76 77 65 63 64 62 66 69 82 89 88 90 89 88 88 89
43 43 47 48 57 59 63 69 71 71 76 79 79 79 69 75 69 67 63 65 72 81 81 79 82 84 79 79 78 77 63 59 54 53 53 58 59 72 75 79 82 89 92 95 95
46 50 48 55 60 61 67 69 76 75 77 80 79 76 71 75 67 66 67 72 75 84 86 85 86 89 85 81 84 67 56 53 53 48 47 49 54 56 63 67 74 78 85 94 99
56 58 57 64 67 70 73 72 79 78 74 83 81 75 73 76 68 70 73 77 80 86 88 88 92 91 87 89 80 63 52 48 46 42 40 41 44 46 50 55 61 68 74 82 93
59 61 66 69 70 75 76 75 76 80 82 81 80 77 74 76 69 71 76 78 81 89 89 93 95 93 86 89 72 59 47 44 39 40 34 33 39 41 42 46 50 55 61 68 76
60 63 67 70 73 76 82 82 78 82 83 79 78 74 74 74 66 70 74 80 83 89 91 97 94 92 92 79 63 50 47 40 36 34 31 30 35 34 35 38 42 45 48 56 63
64 67 71 75 78 82 82 82 81 84 83 80 78 76 74 73 74 74 79 83 87 92 91 97 94 96 93 72 58 48 43 38 36 31 28 26 26 29 30 31 34 40 44 51 58
70 70 77 78 80 83 82 87 91 82 78 79 77 78 70 69 71 77 80 84 91 94 90 95 94 96 89 68 50 47 39 38 33 28 23 23 23 23 27 28 31 34 37 41 48
79 78 80 84 83 87 85 87 84 83 79 76 75 76 73 74 76 77 80 83 87 91 92 95 93 91 82 68 54 42 39 34 29 25 23 22 20 21 22 24 26 29 32 33 38
81 82 86 85 87 87 88 88 80 79 78 77 75 75 74 74 77 80 82 86 90 93 93 94 92 89 80 64 44 40 39 32 27 24 21 20 17 19 18 20 19 23 23 26 31
89 86 86 88 88 93 88 84 78 77 74 77 77 71 73 74 78 80 82 86 89 92 95 94 95 89 77 61 49 40 38 31 26 23 19 18 14 14 14 13 15 17 19 23 28
91 88 87 86 93 88 83 84 77 77 73 77 77 71 75 78 77 85 83 86 88 91 93 96 94 85 77 65 46 39 36 29 24 21 16 14 12 10 10 10 12 18 18 24 28
85 87 86 94 88 82 78 79 74 79 78 80 76 73 77 80 77 85 86 88 89 93 92 94 94 82 73 62 52 39 36 28 24 19 14 11 9 9 7 10 9 19 21 25 27
85 91 95 90 86 82 86 75 78 81 80 79 73 77 80 81 76 83 87 87 88 91 91 92 90 79 70 62 49 38 35 27 23 17 14 8 8 8 8 10 11 19 23 26 27
97 90 88 86 88 86 85 81 74 77 77 73 74 76 79 82 79 83 86 86 86 88 90 90 84 76 69 63 50 38 35 27 22 16 15 9 9 9 11 10 16 22 26 29 32
86 88 93 88 93 88 80 75 77 77 75 75 76 77 78 85 83 85 87 85 86 88 88 89 83 76 66 60 50 38 33 29 21 16 13 10 7 13 14 14 19 29 29 35 37
95 95 95 94 90 87 83 77 76 77 79 77 78 81 80 81 83 86 87 84 85 88 85 86 81 73 65 60 51 40 31 30 20 15 13 11 8 15 18 20 23 32 30 41 42
100 97 94 89 91 90 89 86 85 85 82 79 78 84 82 82 84 86 85 83 84 86 82 83 77 69 63 58 50 40 30 28 19 14 13 12 10 15 18 22 26 27 37 44 46
99 99 95 91 89 90 91 91 92 86 85 84 84 86 88 87 85 83 83 82 81 82 81 80 73 64 59 57 49 41 29 26 20 14 12 12 12 13 18 25 30 27 41 41 52

GFSSW_250_spd_384.txt.gz
Wind_Speed
24 28 30 31 33 39 41 40 41 42 41 42 41 50 53 53 58 57 53 49 47 46 45 46 48 50 50 51 54 55 55 57 58 61 63 66 66 67 66 66 65 65 66 63 71
28 31 33 35 38 43 43 45 45 44 43 45 48 58 59 63 60 62 57 55 54 51 48 46 45 48 51 52 52 52 55 56 58 63 68 70 72 71 72 73 72 70 69 69 66
30 32 35 38 41 45 45 45 45 46 46 50 51 57 59 68 63 66 62 59 57 54 53 52 51 50 51 54 55 56 56 57 59 61 65 71 75 76 77 78 80 77 75 74 73
32 34 37 40 45 46 47 46 47 46 48 52 56 58 70 65 66 64 62 61 57 56 54 54 53 53 55 55 54 54 56 58 57 61 65 68 72 77 81 84 86 83 81 80 80
34 35 37 42 43 44 42 42 45 55 56 60 63 65 68 65 67 63 60 63 58 56 54 53 55 59 60 61 58 56 56 59 61 63 66 69 74 79 82 87 89 89 86 85 85
34 34 38 42 40 39 40 45 55 57 59 63 66 66 67 66 68 63 62 64 57 57 55 55 56 59 64 66 63 60 61 62 64 67 68 68 73 81 88 91 89 90 91 89 91
33 35 39 40 41 41 45 52 57 58 65 66 68 70 66 65 67 64 63 67 59 57 55 55 59 64 69 72 68 64 65 67 66 65 63 65 69 78 85 89 89 89 91 93 92
39 38 45 46 43 51 55 59 59 62 68 71 73 72 66 67 66 67 63 67 60 58 58 61 64 69 74 74 75 73 62 57 68 67 68 70 74 86 85 86 87 90 90 92 91
43 45 49 46 51 52 53 58 62 68 70 74 77 74 69 64 67 69 68 66 62 61 64 64 67 74 76 77 81 73 68 66 62 62 57 63 70 79 81 86 91 92 96 97 97
48 47 50 51 54 52 59 66 69 69 75 76 79 73 71 66 71 71 68 63 62 60 64 67 71 78 80 81 84 73 66 58 51 48 46 50 56 63 70 75 80 89 95 99 99
45 46 50 53 54 58 61 67 70 75 76 78 77 73 71 69 69 71 65 66 66 64 69 72 74 79 84 86 84 72 61 53 48 42 42 40 49 53 59 61 66 75 83 94 101
47 52 57 57 60 61 67 71 74 76 81 80 75 72 70 70 71 73 66 69 69 73 74 73 75 80 85 91 86 71 61 52 45 40 38 40 41 44 47 51 57 63 69 78 90
50 55 58 61 66 68 72 77 76 79 84 80 73 72 69 71 74 77 69 72 71 73 77 75 77 83 86 91 89 73 62 51 43 37 33 35 36 37 39 42 47 55 61 66 75
57 61 64 69 72 77 76 79 79 79 83 78 73 74 67 69 69 74 69 71 72 75 82 79 78 84 86 91 88 76 63 52 42 34 32 31 30 30 34 36 40 45 49 56 62
60 66 66 75 79 75 80 80 81 83 78 76 76 74 71 73 71 72 72 73 74 77 82 84 84 86 88 92 88 79 62 51 40 36 32 26 26 25 25 30 33 38 42 48 55
65 66 70 80 81 80 84 83 80 86 74 77 73 71 71 72 74 75 70 74 74 77 82 84 83 85 90 92 86 77 63 49 39 36 30 26 23 21 22 24 25 32 37 42 49
70 71 78 84 81 85 85 87 81 82 76 75 72 78 72 77 78 73 71 73 78 81 82 84 84 86 88 92 88 79 64 47 39 35 28 24 21 19 18 22 24 27 30 33 40
71 78 85 81 89 87 86 88 86 83 78 73 76 81 74 70 72 70 74 71 76 81 83 85 85 88 87 89 84 75 59 46 40 35 28 22 20 17 17 18 19 23 26 27 31
77 85 87 88 91 90 91 89 82 79 73 75 80 78 72 71 70 69 74 74 79 80 84 86 86 86 85 87 84 76 57 46 40 33 26 22 17 16 15 14 17 18 19 20 26
88 90 92 91 91 88 84 85 81 80 80 79 79 71 69 70 71 70 70 74 79 83 85 86 85 85 85 86 85 74 54 45 41 35 27 22 17 14 13 10 13 12 15 15 19
92 96 93 90 87 88 85 83 80 83 81 76 67 65 70 71 74 75 74 74 80 84 86 85 83 82 82 85 85 77 56 44 39 34 27 22 18 13 9 10 8 10 13 14 15
93 93 91 88 85 84 86 83 88 81 78 71 73 75 69 74 71 73 74 77 81 83 82 84 81 81 80 83 80 74 55 45 37 34 25 21 18 13 7 7 8 8 11 13 15
96 93 88 88 90 92 91 90 81 81 80 79 75 75 74 74 73 74 79 81 84 86 81 82 79 78 78 79 79 72 54 43 37 33 25 20 17 13 7 8 7 9 9 14 14
92 90 92 96 95 98 96 93 93 84 81 86 91 86 85 87 84 85 85 87 86 84 81 79 79 78 77 74 76 68 54 43 34 34 24 19 16 14 8 10 8 10 15 15 12
94 94 94 99 97 93 93 92 86 92 91 96 101 103 97 95 94 91 89 83 82 81 79 76 79 79 75 72 72 60 55 42 32 32 24 19 15 14 11 10 12 10 20 16 17
97 95 94 97 97 97 97 97 102 108 107 107 109 102 101 95 92 87 81 79 79 77 74 74 77 77 72 68 67 54 52 43 30 29 26 19 15 14 13 12 14 17 23 21 24
99 97 97 97 99 101 105 111 112 110 107 105 100 95 89 85 82 80 80 74 75 75 72 72 75 73 68 66 62 49 49 44 31 26 25 20 16 13 13 15 17 21 26 28 26